Regional Weather Roundup
Issued by NWS Upton, NY

Current Version | Previous Version | Text Only | Print | Product List | Glossary Off
Versions: 1 2 3 4 5 6 7 8 9 10 11 12 13 14 15 16 17 18 19 20 21 22 23 24 25 26 27 28 29 30 31 32 33 34 35 36 37 38 39 40 41 42 43 44 45 46 47 48 49 50
000 ASUS41 KOKX 272005 RWROKX REGIONAL WEATHER ROUNDUP NATIONAL WEATHER SERVICE NEW YORK NY 300 PM EST THU NOV 27 2014 NOTE: "FAIR" INDICATES FEW OR NO CLOUDS BELOW 12,000 FEET WITH NO SIGNIFICANT WEATHER AND/OR OBSTRUCTIONS TO VISIBILITY. NYZ071-072-176-178-NJZ106-104-272100- NEW YORK CITY METRO AREA CITY SKY/WX TMP DP RH WIND PRES REMARKS CENTRAL PARK CLOUDY 37 31 78 CALM 30.01R LAGUARDIA APRT CLOUDY 38 31 76 N9 29.98R WCI 31 KENNEDY INTL CLOUDY 38 32 79 N7 30.00R WCI 33 NEWARK/LIBERTY CLOUDY 38 32 79 W9 29.99S WCI 31 BRNX BOT. GARD N/A 36 32 87 NW6 30.00R WCI 31 TETERBORO CLOUDY 38 30 73 NW6 29.98R WCI 33 $$ NYZ177-179-078>081-272100- LONG ISLAND NEW YORK CITY SKY/WX TMP DP RH WIND PRES REMARKS FARMINGDALE CLOUDY 39 30 70 NW9 29.98R WCI 33 ISLIP LGT RAIN 38 31 76 NW9 29.95R WCI 31 SHIRLEY CLOUDY 37 32 82 NW7 29.97R WCI 32 WESTHAMPTON CLOUDY 38 32 79 NW8 29.97S WCI 32 MONTAUK POINT N/A 40 33 76 W6 29.96R $$ NYZ052-065-067-272100- HUDSON VALLEY CITY SKY/WX TMP DP RH WIND PRES REMARKS WHITE PLAINS PTSUNNY 35 29 78 NW9 29.96R WCI 28 NEWBURGH CLOUDY 32 30 93 E6 29.97S FOG WCI 26 MONTGOMERY FLURRIES 33 29 85 N3 29.97R POUGHKEEPSIE CLOUDY 34 29 82 N3 29.99R HAZE ALBANY LGT SNOW 31 25 78 N7 30.01R WCI 24 $$ NJZ001-105-106-008-010-013-015-019>022-104-272100- NEW JERSEY CITY SKY/WX TMP DP RH WIND PRES REMARKS NEWARK/LIBERTY CLOUDY 38 32 79 W9 29.99S WCI 31 TETERBORO CLOUDY 38 30 73 NW6 29.98R WCI 33 CALDWELL CLOUDY 35 28 75 NW8 29.99R WCI 29 MORRISTOWN CLOUDY 37 30 75 N5 30.00R WCI 34 SOMERVILLE CLOUDY 37 29 72 NW8 29.99R WCI 31 SUSSEX PTSUNNY 34 26 72 NW7 29.98R WCI 28 ANDOVER N/A 34 28 79 N5 29.98R WCI 30 TRENTON CLOUDY 36 27 69 NW9 30.01R WCI 29 MILLVILLE SUNNY 43 29 57 NW14G21 30.01S ATLANTIC CITY MOSUNNY 43 31 62 NW14 29.99S WRIGHTSTOWN PTSUNNY 38 29 70 NW9 29.98R WCI 32 TOMS RIVER CLOUDY 39 30 70 NW5 30.00S BELMAR CLOUDY 37 28 70 NW12 29.99R WCI 30 $$ PAZ047>061-062-071-272100- EASTERN PENNSYLVANIA CITY SKY/WX TMP DP RH WIND PRES REMARKS PHILADELPHIA PTSUNNY 41 28 60 NW12 30.03R ALLENTOWN PTSUNNY 35 26 69 W7 30.01R WCI 29 SCRANTON CLOUDY 33 24 69 NW13 29.99R WCI 24 $$ CTZ002-004>006-009-010-012-RIZ004-006-007-MAZ004-011-015-272100- SOUTHERN NEW ENGLAND IN CT CITY SKY/WX TMP DP RH WIND PRES REMARKS BRADLEY INTL CLOUDY 36 28 73 N6 29.96R WCI 31 HARTFORD CLOUDY 36 27 69 N8 29.97S WCI 30 DANBURY CLOUDY 34 26 72 N5 29.98R WCI 30 WTRBRY/OXFORD FLURRIES 32 25 74 N5 29.96R WCI 27 BRIDGEPORT CLOUDY 37 33 85 NW8 29.98R WCI 31 MERIDEN LGT SNOW 34 29 82 NW6 29.97R WCI 29 NEW HAVEN LGT SNOW 38 32 79 N6 29.97R WCI 33 CHESTER LGT SNOW 36 32 87 N8 29.95R WCI 29 GROTON CLOUDY 38 31 76 N8 29.95R WCI 32 WILLIMANTIC CLOUDY 36 29 75 N7 29.96S WCI 30 IN RI CITY SKY/WX TMP DP RH WIND PRES REMARKS PROVIDENCE LGT RAIN 38 32 79 NW7 29.95S WCI 33 BLOCK ISLAND CLOUDY 39 32 75 CALM 29.94R WESTERLY CLOUDY 39 33 79 VRB5 29.95R IN MA CITY SKY/WX TMP DP RH WIND PRES REMARKS BOSTON CLOUDY 37 29 72 NW8 29.96R WCI 31 WORCESTER CLOUDY 31 26 82 N10 29.91S WCI 22 WESTFIELD CLOUDY 35 27 72 NW6 29.96S WCI 30 PROVINCETOWN CLOUDY 39 30 70 NW6 29.95R WCI 35 NANTUCKET CLOUDY 41 32 70 VRB5 29.95R $$ ANZ330-335-338-340-345-350-353-355-272100- COASTAL MARINE OBSERVATIONS STATION/POSITION TIME SKY/WX TEMP WIND PRES VSBY WAVE AIR SEA DIR/SP/G HT/PER (UTC) (F) (DEG/KT/KT) (MB) (MI) (FT/S) NY HARB ENTRANCE 2000 40 54 280/ 14/ 17 1015.3 4/ 9 4S FIRE IS 2000 52 N/A 4/ 9 20S FIRE ISLAND 2000 40 54 330/ 12/ 16 1014.4 4/10 23SW MTP 2000 N/A 6/ 9 HUDSON CANYON 2000 44 58 290/ 16/ 19 1014.0 6/11 EXECUTION ROCKS 2000 38 47 320/ 8/ 12 N/A WESTERN LI SOUND 2000 38 330/ 10/ 14 N/A 0 CENTRAL LI SOUND 1900 37 50 330/ 10/ 12 N/A 1 EASTERN LI SOUND 1900 40 52 350/ 8/ 10 N/A ROBBINS REEF 2000 37 310/ 9/ 11 1014.2 $$ >>>>>>>>>>>>>>>>>>>>>>>>>>>> KEY <<<<<<<<<<<<<<<<<<<<<<<<<<< > < > SKY/WX - SKY CONDITION/PRESENT WEATHER < > TMP - TEMPERATURE IN FAHRENHEIT < > DP - DEWPOINT IN FAHRENHEIT < > RH - RELATIVE HUMIDITY IN PERCENT < > WIND - DIRECTION AND SPEED IN MPH < > PRES - MEAN SEA LEVEL PRESSURE IN INCHES OF HG < > WCI - WIND CHILL INDEX < > VSB - VISIBILITY IN MILES < > HX - HEAT INDEX < > TC - TEMPERATURE IN CELSIUS < > VRB - VARIABLE WIND DIRECTION < > < >>>>>>>>>>>>>>>>>>>>>>>>>>>> KEY <<<<<<<<<<<<<<<<<<<<<<<<<<<

USA.gov is the U.S. government's official web portal to all federal, state and local government web resources and services.